Dewpoint
53 52 53 53 53 54 54 54 54 54 55 55 54 55 55 55 55 55 55 55 55 55 56 56 56 56 56 56 57 57 56 52 49 43 43 47 52 60 59 69 66 68 75 55 54 45 46 47 47 52 54 57 56 55 55 56 55 53 56 57 57 55 52 51 52 51 50 44 41 42 44 45 43 45 50 51 51 54 53 54 55 55 57 59 61 60 59 60
52 53 53 53 53 53 53 54 54 54 54 54 54 55 55 55 55 56 55 55 55 55 56 56 56 56 56 56 56 56 54 50 47 44 38 41 64 61 66 67 70 72 71 47 47 44 42 43 45 50 52 54 55 54 52 51 55 51 52 54 58 54 54 59 56 56 54 47 47 43 43 45 46 46 49 57 51 52 52 55 57 56 58 60 60 60 59 59
53 53 53 53 53 53 53 53 54 54 53 54 54 55 55 55 55 55 55 55 55 55 55 55 55 55 55 56 56 56 53 48 45 42 42 59 59 65 65 67 69 72 52 42 43 43 41 41 44 49 52 53 52 51 51 49 52 50 48 55 53 53 56 65 57 55 55 57 43 48 44 46 40 45 45 51 52 53 53 54 56 57 58 59 60 60 60 60
53 53 53 53 53 53 53 54 54 54 54 54 55 55 55 55 55 55 55 54 55 55 55 55 56 55 55 56 56 54 50 47 40 32 26 59 64 63 67 67 68 66 47 41 40 41 43 42 44 49 51 51 50 50 49 47 47 50 47 45 56 55 54 62 56 56 57 59 55 45 41 45 39 46 49 52 56 58 58 57 55 57 58 59 59 59 59 60
53 53 53 53 53 53 53 54 53 53 54 55 55 55 55 55 55 55 55 55 55 55 55 55 55 55 55 56 57 53 48 35 17 34 51 72 68 64 67 67 73 49 41 37 38 37 42 41 44 48 50 51 47 48 47 47 48 49 48 47 51 56 51 64 58 57 59 60 48 49 51 58 47 46 46 49 51 53 56 60 56 58 59 59 59 59 59 59
52 53 52 53 53 53 53 54 54 54 55 55 55 55 55 55 55 55 55 55 55 55 55 55 55 55 56 56 53 50 44 17 35 29 71 72 70 66 67 68 72 43 38 35 35 34 36 40 42 45 49 49 46 43 47 45 48 45 44 44 49 52 52 60 54 60 56 58 56 48 52 52 43 47 46 47 47 53 58 58 56 58 59 60 59 59 59 59
52 52 53 53 54 54 54 54 54 54 55 55 55 55 55 54 54 54 55 55 55 55 55 55 55 56 56 56 52 47 42 30 28 39 74 70 69 68 69 69 69 42 35 33 33 34 34 37 40 43 47 47 46 43 43 45 44 46 45 43 45 49 47 51 53 57 58 46 46 52 47 44 43 44 44 48 50 51 56 54 58 59 59 60 59 59 59 59
53 53 53 53 53 53 53 54 54 54 54 55 55 55 55 55 55 55 55 55 55 55 55 56 56 56 56 50 47 42 37 31 28 36 73 71 65 65 67 52 45 36 32 32 33 34 34 36 38 42 45 46 44 42 41 42 44 43 43 43 43 47 47 47 49 50 49 47 46 45 44 43 42 46 46 51 52 51 55 54 57 57 60 59 60 60 59 59
53 53 53 53 53 53 54 54 54 54 54 54 55 54 54 54 54 55 55 55 55 55 56 56 57 57 56 52 44 36 34 36 32 35 59 51 48 55 49 41 38 31 31 30 32 36 38 38 39 41 43 46 45 40 39 39 40 42 42 43 42 42 48 49 48 48 48 49 47 46 44 43 43 45 43 48 48 51 50 53 58 57 57 59 59 60 60 59
53 53 53 53 53 54 54 54 54 54 54 54 54 54 54 54 54 55 55 55 55 56 57 57 56 56 53 48 40 35 35 33 29 38 44 38 41 47 41 34 34 30 31 30 30 39 42 41 40 42 43 45 43 38 38 35 37 41 41 42 42 42 42 44 47 48 47 46 47 46 45 43 42 43 39 45 48 50 51 53 56 57 58 59 58 59 59 59
53 53 53 53 54 54 53 54 54 55 54 54 54 54 54 54 54 54 55 55 56 56 58 59 58 55 49 45 37 31 33 19 15 41 38 33 38 38 35 35 32 30 34 33 32 39 42 40 40 42 44 42 42 37 36 34 36 38 41 43 43 42 41 42 44 46 46 44 46 46 44 45 43 40 38 43 46 48 52 54 56 56 58 58 58 59 61 60
52 53 53 53 53 53 53 54 54 54 54 53 53 54 54 54 54 54 54 55 57 58 58 58 58 54 50 42 33 32 27 20 25 27 36 32 38 37 34 36 37 33 37 36 35 38 39 38 39 40 41 43 40 38 36 36 35 37 40 40 43 45 43 41 41 45 47 46 47 47 44 43 41 38 38 45 46 46 50 52 54 56 57 58 59 59 61 60
53 53 53 53 54 53 54 54 54 54 53 53 54 54 54 54 54 54 55 55 56 58 57 57 58 53 48 40 38 36 34 33 28 28 35 27 30 38 38 36 38 36 36 37 37 37 36 35 36 36 41 42 36 33 35 37 35 35 40 41 41 41 41 44 42 41 44 45 46 44 39 40 41 38 37 44 45 45 48 49 53 54 57 58 58 60 60 60
53 53 53 53 53 53 54 54 54 53 53 53 53 53 53 53 53 54 55 56 57 58 57 58 55 52 49 41 38 37 37 35 33 29 33 36 28 24 36 37 35 36 35 35 38 38 35 32 32 33 37 37 36 34 32 34 39 36 37 41 39 39 39 41 42 41 41 44 44 45 41 38 38 37 38 42 45 44 47 48 49 53 54 58 57 58 60 60
53 53 53 54 54 54 54 54 53 52 53 54 52 52 52 52 53 54 56 57 59 59 57 57 55 50 46 42 43 42 61 48 31 30 27 30 34 31 35 38 33 33 35 35 36 37 35 31 29 29 31 36 35 34 32 32 35 38 37 37 38 37 38 39 39 40 40 43 44 42 40 37 35 35 38 42 44 43 47 48 51 51 53 53 55 56 58 59
52 53 53 53 53 53 53 53 52 52 53 52 51 51 52 52 54 55 56 57 59 57 56 53 53 51 45 40 40 54 44 37 28 27 27 25 36 36 39 36 32 32 34 35 36 36 35 31 27 27 29 32 31 32 34 33 31 35 35 35 35 36 36 35 34 36 39 41 42 40 38 36 49 41 39 42 43 43 46 46 49 50 51 51 54 56 59 59
53 53 53 53 53 53 53 52 53 53 51 51 51 51 52 54 54 56 58 59 56 56 54 51 50 50 39 36 35 31 34 35 29 23 24 22 27 35 36 33 30 30 33 34 35 36 35 32 31 29 29 29 30 31 32 34 34 33 33 34 35 35 35 33 32 34 37 39 40 40 39 36 38 40 40 43 45 44 47 46 52 51 53 52 52 54 55 58
53 53 52 53 53 53 53 52 52 52 51 50 50 49 48 55 55 54 56 58 55 53 53 52 50 48 45 44 36 30 31 33 31 27 20 18 19 33 36 33 30 31 33 33 35 34 36 33 31 28 28 29 30 29 31 32 32 31 32 32 33 34 34 30 29 32 34 38 38 39 37 36 37 37 39 41 43 43 46 46 48 51 53 53 51 53 56 59
53 53 52 53 53 53 53 52 52 51 50 51 51 51 53 56 51 49 50 54 53 51 46 47 46 27 22 33 39 34 29 29 29 28 18 14 21 35 39 36 35 36 34 33 33 33 34 34 33 31 27 27 29 31 30 32 32 30 32 30 30 29 30 28 29 32 33 35 36 36 36 35 38 38 39 40 42 43 45 49 49 52 55 56 54 53 56 59
53 53 53 53 53 53 53 52 51 51 50 48 43 42 37 22 21 46 43 29 26 34 38 34 41 37 37 38 35 33 32 26 25 23 18 14 26 37 39 38 37 35 34 30 32 32 36 35 32 30 29 28 29 31 34 34 31 29 31 28 27 27 27 27 29 30 33 33 35 35 37 36 43 38 38 39 42 43 43 47 54 53 55 56 55 54 57 59
53 53 53 52 52 53 52 52 51 50 49 47 41 31 18 19 19 18 24 28 29 28 24 20 19 25 32 36 36 32 28 26 26 22 17 15 26 35 36 34 33 31 31 31 32 35 36 36 32 31 30 30 30 31 33 34 31 26 27 23 23 23 25 26 27 31 33 33 34 36 36 36 36 38 40 42 41 40 42 43 54 53 54 54 55 53 57 59
52 53 52 52 52 52 52 51 51 49 49 45 41 24 19 18 22 23 27 25 24 25 25 25 24 23 22 22 23 24 23 25 25 22 16 16 27 31 33 33 33 31 32 34 34 35 33 33 34 31 31 29 29 29 30 30 29 26 24 24 20 21 24 24 27 30 33 32 33 34 36 35 36 35 36 38 40 43 41 42 44 55 53 56 54 54 57 58
53 52 53 52 52 52 51 51 49 49 48 44 32 21 17 18 22 27 28 27 27 28 28 28 26 22 19 20 22 22 22 24 25 22 14 19 25 29 32 34 33 33 34 35 30 30 30 29 33 33 31 30 28 28 28 26 27 28 25 23 20 20 19 20 25 29 31 32 32 35 34 36 37 38 37 37 36 41 45 43 43 60 55 53 54 55 57 57
53 53 52 52 52 51 52 49 49 47 36 32 27 18 17 20 23 26 29 27 23 24 22 20 24 26 21 13 16 20 21 25 27 25 19 19 23 27 30 34 32 31 31 31 27 25 26 25 28 32 30 29 28 27 27 26 25 30 30 24 19 18 19 19 21 27 30 31 32 32 33 35 36 34 35 36 36 36 36 39 43 44 55 54 55 54 56 56
53 53 53 52 51 51 49 49 41 20 33 35 22 20 17 23 26 29 29 31 31 30 32 30 24 20 24 19 13 14 19 25 28 28 23 19 22 26 26 33 31 29 28 26 23 20 18 19 19 25 26 25 25 25 24 27 27 27 28 27 20 18 19 20 19 22 26 30 31 31 31 34 36 35 34 35 34 35 37 40 42 49 48 56 55 54 56 56
53 53 53 52 51 50 49 42 21 33 36 27 24 20 20 20 25 31 29 31 27 26 20 26 30 22 21 19 12 12 19 22 28 29 26 20 26 24 24 28 31 27 28 26 21 19 16 18 19 19 21 21 21 23 24 25 28 28 27 26 23 19 18 18 17 18 25 29 32 32 31 31 34 35 36 37 36 35 36 38 37 46 51 54 56 57 56 56
52 52 52 51 51 49 38 24 33 38 34 28 24 22 19 23 36 29 29 27 27 24 18 24 18 17 18 17 12 13 13 16 25 29 28 25 21 24 20 23 29 27 27 26 25 19 18 17 20 21 22 21 20 20 22 25 26 25 23 20 19 18 18 18 17 17 20 26 29 31 32 32 32 33 37 36 36 37 38 37 39 39 46 55 54 52 55 54
52 52 51 50 50 49 44 41 41 36 31 25 24 23 24 29 31 27 30 27 13 18 19 19 19 22 20 15 12 12 13 18 20 24 28 24 22 21 20 18 23 24 24 24 21 22 20 18 19 20 22 22 21 20 23 24 23 20 17 17 15 15 18 18 16 16 15 18 23 25 29 31 31 33 36 36 35 36 36 36 39 41 47 48 47 52 55 55
52 51 51 50 49 49 49 44 40 36 28 25 25 24 23 29 25 26 23 18 20 10 19 19 24 22 22 16 12 11 10 18 17 21 26 27 23 20 18 18 17 21 22 22 20 21 22 21 18 20 20 19 20 19 21 23 21 18 17 15 12 12 12 14 15 16 18 20 20 25 24 28 28 28 31 34 34 34 33 34 34 39 41 54 45 48 54 55
51 51 50 50 47 41 35 32 34 30 26 27 26 26 24 24 23 23 24 22 17 -3 17 19 17 20 21 17 14 13 11 11 18 21 24 25 23 21 16 17 14 14 17 19 20 21 21 26 25 18 18 19 20 18 19 19 18 17 15 12 12 10 10 13 12 18 20 18 21 17 15 17 19 27 30 31 32 33 32 34 36 39 40 40 54 48 49 55
51 50 49 49 44 37 40 37 30 27 29 31 26 24 24 25 19 14 16 20 15 14 25 21 25 23 19 18 15 15 14 13 14 20 22 24 22 22 21 16 15 11 14 18 19 20 21 20 20 19 19 18 19 18 16 16 15 13 12 13 13 13 10 15 12 16 14 15 20 16 16 17 20 23 24 33 33 32 33 33 35 34 38 41 45 48 52 54
49 49 49 48 46 46 40 38 32 29 29 26 24 22 19 10 18 14 9 12 9 24 22 22 23 23 23 25 18 18 18 17 15 16 21 22 23 23 23 18 14 12 13 17 19 20 19 19 20 20 24 17 19 18 15 14 13 12 14 18 12 12 16 8 12 9 8 11 15 12 14 16 19 24 24 24 24 28 33 32 31 30 36 43 41 44 54 52
48 48 48 48 48 44 43 38 30 29 27 24 23 22 19 17 14 10 13 12 8 21 18 20 19 21 22 23 23 20 20 18 17 16 20 22 22 24 24 21 16 14 14 16 18 18 18 19 19 20 20 22 19 18 16 12 11 13 16 16 13 11 7 13 14 19 16 13 10 11 14 14 18 20 23 21 24 27 30 34 34 34 37 43 46 48 48 54
48 48 47 47 45 39 37 33 26 26 22 26 24 19 17 13 12 23 8 7 12 18 19 18 18 19 21 22 22 23 17 20 17 16 19 22 22 24 24 23 19 16 17 17 17 18 17 17 17 18 19 21 20 19 18 14 13 15 15 12 13 13 8 16 17 16 16 18 13 12 13 18 14 19 17 19 21 25 27 28 35 38 40 45 44 47 44 51
48 48 48 46 47 46 29 21 28 24 23 20 17 15 15 14 10 5 9 17 17 17 16 17 16 16 18 21 22 22 22 19 19 16 17 19 21 22 23 23 21 18 17 15 17 19 17 17 18 19 20 22 19 19 19 16 15 15 14 12 10 11 19 16 17 14 14 11 9 15 13 16 18 24 20 19 16 20 23 27 31 37 39 44 47 47 44 49
47 44 43 42 30 28 20 19 23 24 24 21 17 16 13 12 6 17 16 16 16 16 15 16 15 14 16 19 20 18 20 21 18 18 18 19 21 22 22 23 21 20 17 16 17 16 18 16 17 17 18 21 20 19 20 18 15 14 11 10 9 10 11 19 21 15 13 12 13 17 15 13 12 10 12 17 16 19 21 21 23 31 45 48 45 45 41 39
43 44 41 36 34 23 23 21 23 27 27 23 21 18 18 20 17 16 21 14 14 15 15 14 15 15 16 16 17 14 16 22 19 19 20 19 18 20 21 22 23 21 20 18 17 19 18 17 16 16 16 20 21 20 20 18 13 11 9 9 10 11 11 18 15 22 15 10 13 7 9 13 12 14 14 14 17 18 19 20 19 27 32 38 44 46 48 44
44 43 44 42 35 25 22 26 28 30 25 23 24 28 20 15 17 15 16 14 12 13 14 13 13 15 15 14 14 15 17 18 20 23 15 18 17 19 20 21 22 22 21 21 20 20 20 18 17 17 17 19 20 21 21 19 15 13 10 10 8 12 14 21 21 14 15 16 16 14 11 12 15 20 14 14 14 17 23 27 22 21 23 32 38 48 47 46
45 43 32 27 24 22 23 30 29 29 29 22 20 20 15 14 14 16 15 14 14 15 14 14 14 13 13 13 14 15 15 16 18 20 22 18 17 18 17 25 21 22 22 22 21 20 19 17 18 17 16 18 20 22 22 18 16 14 14 11 10 13 16 19 19 21 23 20 19 17 17 16 18 17 17 18 21 23 19 21 19 19 22 30 34 45 45 48
36 34 23 27 24 23 30 27 25 26 22 15 19 19 12 10 14 15 11 15 15 17 17 17 18 16 14 14 15 16 21 25 18 19 22 23 18 24 24 26 26 28 25 23 21 21 20 25 19 16 16 17 18 22 21 20 16 13 12 13 12 11 14 15 14 14 18 23 24 21 15 20 22 16 18 23 24 26 24 25 33 24 23 25 32 48 50 49
42 37 27 25 25 26 25 24 23 17 15 16 19 14 11 15 17 13 13 14 14 16 16 18 19 18 18 18 23 24 25 24 23 24 22 21 25 25 25 25 26 27 29 29 27 21 23 21 18 18 16 17 17 20 20 20 17 12 12 14 13 11 12 13 14 11 11 16 21 18 19 28 13 11 18 22 26 23 25 26 27 24 19 30 34 45 47 44
39 24 21 25 26 23 23 21 12 16 14 13 10 13 13 21 15 14 15 15 17 16 19 20 20 19 19 19 20 27 27 26 25 25 26 23 29 27 26 26 26 27 27 29 26 22 24 23 19 17 18 15 16 17 19 19 18 13 11 12 13 12 12 14 15 15 11 10 10 17 16 29 28 23 24 21 23 20 23 21 24 21 25 22 30 27 47 47
31 29 32 25 25 23 22 18 19 17 12 12 15 15 13 14 15 14 15 17 14 16 17 19 19 18 19 21 24 25 26 25 25 25 25 26 28 30 27 26 26 26 28 28 28 27 40 23 24 23 23 17 15 16 19 19 18 13 11 11 12 11 10 10 13 19 17 14 11 11 21 22 23 50 41 21 36 21 26 20 27 20 21 28 29 29 51 49
37 35 36 21 24 24 22 17 17 15 17 18 20 18 16 16 14 17 17 17 16 16 17 20 20 21 22 23 23 23 26 25 27 27 26 28 26 29 29 28 26 25 25 28 34 32 26 29 27 23 29 29 14 16 15 17 17 15 11 11 12 13 13 11 13 22 20 14 10 12 13 19 24 38 33 25 20 18 19 17 22 23 29 24 30 39 50 53
39 36 28 21 25 22 22 21 18 19 18 17 22 20 17 17 18 19 18 18 18 18 21 21 22 20 20 22 21 23 23 26 27 30 36 35 35 34 30 32 32 25 26 31 43 33 34 33 31 25 27 25 16 16 19 19 18 16 15 11 12 11 15 15 14 25 20 33 31 17 16 25 26 36 25 22 20 33 23 19 19 24 34 28 34 52 52 53
37 31 24 23 24 21 25 21 17 18 20 24 23 20 19 17 19 21 18 18 21 25 22 21 21 23 23 20 22 20 22 26 27 33 36 35 34 33 33 32 31 29 39 48 44 34 32 33 36 32 29 24 23 28 19 21 18 15 13 11 10 10 10 16 21 22 18 28 25 31 28 28 27 22 26 15 20 18 19 24 22 41 44 48 58 56 57 61
38 29 25 26 25 22 16 16 17 18 20 23 23 23 22 21 21 22 22 21 27 25 24 21 22 26 24 24 24 23 25 28 31 36 34 34 33 32 33 31 30 35 47 41 37 30 35 33 32 38 34 31 34 31 28 24 17 16 14 9 9 10 11 14 16 16 39 25 21 34 49 28 27 28 28 30 24 37 23 29 36 38 41 41 52 61 57 50
35 34 31 31 26 25 21 18 19 18 18 22 24 26 23 20 21 20 20 22 25 28 27 26 25 23 25 23 25 26 28 29 32 32 34 34 32 32 33 31 30 38 37 28 26 29 31 32 32 30 28 28 28 28 29 28 26 17 15 11 10 10 11 13 20 17 30 25 27 41 48 38 32 23 20 25 34 35 19 23 33 36 35 48 53 47 43 49
36 37 34 34 31 31 28 24 21 20 21 24 27 26 23 23 20 19 20 22 23 25 31 26 25 25 26 27 27 27 30 28 28 32 33 33 30 32 32 30 31 29 28 28 28 34 34 32 33 29 29 28 27 27 28 28 26 28 16 13 10 10 11 10 13 15 18 38 34 32 44 28 24 19 19 21 28 24 29 35 37 38 34 53 42 47 39 43
38 38 36 38 36 34 33 25 24 23 23 29 24 24 25 25 21 20 21 23 22 25 27 27 26 28 27 26 29 26 27 28 30 30 31 31 30 33 32 30 28 28 27 26 28 32 31 33 35 30 29 25 27 26 26 28 29 27 24 13 10 9 10 10 11 15 21 22 19 21 38 37 28 34 29 28 35 25 31 31 31 41 35 32 34 34 40 39
45 45 46 40 36 35 33 29 26 25 21 22 26 28 29 22 21 23 22 25 29 29 26 25 28 27 27 26 27 28 29 28 28 28 29 29 28 30 31 30 29 28 27 26 27 29 30 32 32 33 31 29 27 27 27 26 27 27 27 19 13 11 13 12 14 14 20 27 27 21 36 30 30 31 27 33 35 38 34 36 36 36 28 37 34 30 36 49
42 44 43 42 36 37 34 31 28 24 21 22 26 26 26 26 24 25 25 27 29 29 28 26 28 26 25 26 27 27 28 26 26 27 27 27 27 27 29 30 29 28 27 25 27 26 30 30 30 29 28 30 29 29 26 27 27 26 27 22 15 16 14 14 15 18 18 19 22 25 28 32 37 36 30 30 29 33 35 31 36 41 50 37 37 37 35 36